Regional Weather Roundup
Issued by NWS

Home | Current Version | Previous Version | Text Only | Print | Product List | Glossary On
Versions: 1 2 3 4 5 6 7 8 9 10 11 12 13 14 15 16 17 18 19 20 21 22 23 24 25 26 27
000
ASUS44 KBMX 201910
RWRAL

ALABAMA REGIONAL WEATHER ROUNDUP
NATIONAL WEATHER SERVICE BIRMINGHAM AL
200 PM CDT SUN APR 20 2014

NOTE: "FAIR" INDICATES FEW OR NO CLOUDS BELOW 12,000 FEET
WITH NO SIGNIFICANT WEATHER AND/OR OBSTRUCTIONS TO VISIBILITY.

THE REMARK "TC" DENOTES TEMPERATURE IN DEGREES CELSIUS.

ALZ001>011-014-016>018-020-202000-
NORTH ALABAMA

CITY           SKY/WX    TMP DP  RH WIND       PRES   REMARKS
MUSCLE SHOALS  SUNNY     76  46  34 NE3       30.19F
HUNTSVILLE     MOSUNNY   77  46  33 NW8       30.18F
DECATUR        SUNNY     75  46  35 SW6       30.19F
HALEYVILLE     FAIR      76  44  31 VRB6      30.20F
GADSDEN        NOT AVBL
$$

ALZ012-013-022-023-030>036-040>044-202000-
WEST CENTRAL ALABAMA

CITY           SKY/WX    TMP DP  RH WIND       PRES   REMARKS
TUSCALOOSA     SUNNY     76  47  35 E9G17     30.18F
$$

ALZ015-024>027-033>036-040>044-202000-
CENTRAL ALABAMA

CITY           SKY/WX    TMP DP  RH WIND       PRES   REMARKS
BIRMINGHAM     MOSUNNY   77  40  26 E9G18     30.19F
MONTGOMERY     SUNNY     73  52  47 SE6       30.18F
SHELBY CO ARPT SUNNY     74  47  38 VRB5      30.18F
MAXWELL AFB    SUNNY     75  58  54 E8        30.18S
GREENVILLE     FAIR      68  52  56 VRB5      30.17F
$$

ALZ019-021-028-029-037-038-045>048-202000-
EAST CENTRAL ALABAMA

CITY           SKY/WX    TMP DP  RH WIND       PRES   REMARKS
ANNISTON       SUNNY     75  45  34 MISG      30.17F
ALEXANDER CITY SUNNY     76  43  30 NE7       30.18F
AUBURN         MOSUNNY   70  48  46 NE8       30.21F
$$

ALZ051>064-202000-
SOUTHWEST ALABAMA

CITY           SKY/WX    TMP DP  RH WIND       PRES   REMARKS
MOBILE         MOSUNNY   73  55  53 NE12G20   30.16F
BROOKLEY FIELD MOSUNNY   71  54  54 N14       30.17F
EVERGREEN      PTSUNNY   68  53  58 E10G18    30.20F
$$

ALZ049-050-065>069-202000-
SOUTHEAST ALABAMA

CITY           SKY/WX    TMP DP  RH WIND       PRES   REMARKS
DOTHAN         CLOUDY    60  51  72 NE9G18    30.21S
OZARK          CLOUDY    60  52  74 NE10      30.18F
TROY           CLOUDY    68  52  56 N10       30.19F
EUFAULA        CLOUDY    67  52  58 NE7       30.17F
$$



USA.gov is the U.S. government's official web portal to all federal, state and local government web resources and services.